Wind_Speed
4 3 4 3 4 5 2 1 2 2 2 1 6 4 4 3 2 3 12 20 34 31 26 21 18 16 16 16 15 14 15 14 14 14 13 14 12 10 10 11 9 11 12 11 10 10 12 14 14
4 5 2 2 5 4 4 1 4 1 3 7 6 4 3 3 4 10 13 27 35 33 27 22 18 16 16 15 14 13 13 13 12 11 10 11 10 9 9 9 10 11 12 10 11 10 11 12 13
4 1 3 4 3 2 2 3 4 3 5 2 3 4 3 2 9 17 14 34 35 31 27 22 19 17 15 14 13 12 11 11 11 9 9 8 8 8 8 8 9 9 10 10 11 11 11 12 13
3 4 4 4 1 2 1 6 5 5 2 4 5 6 4 8 13 12 31 34 33 30 26 21 18 17 16 15 13 12 10 10 9 8 7 7 6 7 8 7 7 7 9 10 10 10 11 11 11
3 3 4 4 4 2 3 5 6 2 4 4 3 3 5 3 13 28 32 33 32 29 25 21 18 17 16 15 13 11 10 9 8 8 6 6 6 6 8 9 7 6 6 8 9 10 9 10 10
3 3 5 2 3 2 3 5 6 2 4 5 7 6 3 13 24 24 29 31 29 28 25 22 18 17 15 15 13 12 10 9 8 7 5 5 6 7 6 8 7 6 6 5 7 9 9 9 9
5 4 2 2 2 1 3 6 4 6 5 3 7 5 2 6 17 23 26 27 26 25 24 23 20 18 16 15 14 12 11 10 8 7 5 5 5 5 6 5 6 6 6 6 5 7 8 9 9
4 4 2 2 3 1 5 3 4 4 3 5 6 6 5 10 19 23 24 24 25 24 22 22 21 19 17 16 14 12 11 10 8 6 5 5 5 5 5 6 6 6 6 6 6 6 6 7 8
4 4 1 5 6 3 6 5 2 3 6 5 2 5 16 25 25 24 22 20 22 22 23 23 22 20 18 16 14 12 11 9 7 6 4 6 6 6 5 6 7 6 7 7 7 6 7 7 8
3 3 5 7 7 6 5 5 6 4 3 6 13 20 28 26 25 22 19 19 20 24 25 24 23 21 19 17 15 14 11 10 9 5 7 7 7 6 5 7 8 9 8 8 8 7 7 8 10
2 4 4 2 6 8 8 4 2 9 3 4 15 17 18 20 20 23 22 24 28 26 26 26 24 22 19 19 16 14 12 10 8 6 6 7 9 10 9 8 10 10 12 11 9 8 9 11 12
1 6 1 5 7 7 7 7 4 1 3 11 19 21 18 15 16 18 21 22 26 28 28 26 24 22 20 18 16 13 12 10 8 8 9 11 10 5 7 10 10 9 9 9 9 11 10 11 11
4 3 4 7 9 8 9 4 5 5 11 11 14 16 16 13 15 13 16 18 23 26 28 27 25 23 20 18 15 13 12 11 9 9 11 8 11 9 5 6 10 10 10 10 10 10 12 11 12
4 6 5 6 8 5 11 3 4 4 13 14 16 15 14 14 18 14 19 21 27 27 27 26 25 23 20 19 16 13 12 11 12 12 11 13 12 11 7 5 5 10 10 9 9 7 6 10 13
1 8 7 5 4 4 5 5 2 9 14 15 14 13 12 13 16 21 25 26 30 28 26 25 23 22 22 21 17 15 13 13 12 14 9 14 15 11 11 9 1 1 5 3 6 7 10 9 10
4 5 3 3 5 5 4 4 2 5 10 10 9 9 10 9 17 19 18 21 26 26 25 24 23 23 22 20 16 16 14 13 11 12 12 13 14 13 12 12 9 6 6 5 3 6 4 5 9
8 3 3 1 3 4 2 2 3 3 5 3 3 3 5 6 9 20 21 26 25 26 25 24 24 22 23 20 17 14 13 13 13 12 13 12 14 13 12 13 11 6 6 7 5 4 6 6 8
3 2 2 3 2 7 6 3 5 4 4 3 2 2 6 3 6 17 20 22 25 26 27 23 26 25 20 20 19 15 14 12 11 13 11 13 13 14 14 13 12 10 6 5 5 5 6 8 8
3 4 4 1 3 6 4 5 5 3 1 5 5 5 3 5 4 3 10 19 23 25 28 28 26 25 22 19 19 16 15 15 15 13 14 15 17 16 16 15 14 12 10 7 6 8 6 7 7
1 4 1 5 5 6 2 3 3 2 2 5 4 3 5 4 4 6 7 11 20 24 27 25 24 22 21 21 20 19 14 12 13 12 13 14 17 19 19 18 16 13 12 9 6 6 7 5 5
3 4 5 6 6 7 3 5 4 2 3 6 1 4 3 5 5 5 4 2 11 17 21 23 21 20 19 18 21 20 18 16 15 14 14 15 15 19 21 20 20 17 15 13 12 9 9 7 6
4 4 7 12 4 4 3 3 3 4 7 5 5 4 6 6 5 5 7 8 2 7 6 12 14 21 19 20 21 20 22 23 19 18 19 17 16 16 19 22 23 19 17 17 16 14 13 10 10
7 5 7 3 6 5 4 3 4 2 4 5 5 4 9 9 9 7 10 12 8 7 10 19 19 17 18 18 15 17 22 23 21 20 18 20 20 21 19 20 24 23 21 20 20 17 16 14 12
6 7 9 5 4 3 1 3 4 4 5 5 5 4 5 8 8 10 10 9 9 6 8 14 19 18 19 19 17 15 15 18 20 19 22 24 24 24 22 21 21 23 23 23 20 19 18 17 17
6 6 3 3 3 5 3 3 7 5 5 5 11 10 10 11 11 11 9 12 13 12 3 7 10 19 22 20 13 14 18 19 21 25 26 25 24 24 26 23 21 20 21 20 20 19 20 21 21
5 8 6 6 4 4 3 5 4 4 5 4 7 8 9 13 12 12 10 8 14 19 20 16 8 11 12 21 17 18 17 20 22 27 28 29 25 26 26 28 24 19 18 19 20 21 23 23 22
5 2 4 8 4 2 2 4 6 3 1 0 4 5 6 10 12 11 9 8 14 19 25 20 17 15 7 4 11 18 16 11 10 12 14 13 14 13 20 24 26 24 24 26 24 23 21 21 24
2 6 4 3 5 4 4 4 5 9 11 7 6 5 6 7 11 9 11 14 18 20 20 19 18 17 14 13 9 8 8 8 9 8 8 7 7 7 7 17 22 28 25 30 24 26 27 25 25
1 3 8 6 3 5 1 6 6 14 15 15 10 8 7 8 10 10 13 16 16 15 15 15 13 11 10 8 7 8 10 11 11 12 13 12 9 9 10 12 14 14 19 26 27 27 28 23 25
1 5 5 5 4 1 2 6 6 7 12 13 13 9 6 6 6 7 15 17 15 15 14 14 12 11 9 8 8 9 10 12 13 13 14 13 13 11 12 13 13 14 14 16 21 24 21 22 25
Wind_Direction
104 100 64 32 55 65 355 66 131 85 33 35 109 137 148 61 159 198 149 161 154 155 156 149 147 141 135 129 122 116 111 110 106 103 105 107 108 112 118 112 107 110 123 120 113 115 110 114 113
123 113 56 59 77 56 300 154 135 75 127 103 85 93 59 82 79 122 130 161 158 156 157 154 152 148 144 138 129 124 120 115 109 106 103 105 114 115 113 118 113 114 122 114 120 122 118 120 119
82 154 58 85 91 154 180 56 120 126 162 95 91 65 68 76 109 141 155 156 158 158 160 158 157 154 151 145 139 134 129 121 117 111 108 108 111 121 130 129 128 121 120 118 119 121 126 124 126
124 16 27 74 19 6 136 128 146 141 157 72 107 64 72 115 140 154 152 158 159 161 163 159 160 159 157 151 147 146 142 137 132 124 114 108 102 122 128 123 127 126 135 127 124 128 129 134 134
70 64 54 65 354 12 74 141 128 121 100 64 91 58 78 36 127 145 156 162 161 162 164 163 165 165 163 160 158 158 157 152 149 143 134 123 110 112 131 133 129 128 134 138 135 135 133 143 141
41 99 53 64 343 6 43 141 129 91 69 127 84 96 66 130 133 146 156 164 166 163 168 167 172 171 175 168 172 174 170 170 168 159 152 141 127 122 127 143 141 136 142 149 151 142 151 150 152
103 71 124 102 320 0 150 129 142 121 110 79 122 83 71 118 135 145 157 164 168 169 174 172 177 181 185 183 187 186 184 186 181 175 172 170 152 146 147 151 155 158 156 152 151 155 158 164 173
107 90 97 175 209 235 125 83 101 118 59 93 148 154 164 151 140 151 159 165 170 176 183 183 185 191 195 194 199 197 196 199 196 189 195 197 194 185 173 180 185 182 178 178 178 176 170 180 193
137 69 180 186 159 194 135 111 97 68 108 62 324 119 128 139 142 146 155 165 174 182 190 192 192 201 201 202 202 205 204 205 210 210 226 242 227 205 197 192 193 206 197 195 201 200 200 204 212
91 112 228 198 172 165 114 105 131 103 80 58 80 105 126 143 145 150 165 172 183 188 196 198 197 203 202 203 205 212 209 213 216 211 220 240 245 230 248 215 214 203 208 208 214 218 220 220 225
162 198 205 170 147 122 119 99 112 126 66 203 143 135 143 157 166 166 178 182 190 194 198 197 198 202 205 206 209 215 220 222 218 195 218 233 253 255 254 234 213 212 202 210 214 218 228 233 234
136 238 231 138 115 103 119 121 115 92 163 155 149 151 155 175 181 178 182 186 193 200 200 199 201 205 210 212 215 222 226 229 219 208 238 244 249 270 258 222 222 228 228 227 226 236 240 245 241
133 337 79 85 96 87 97 96 121 93 128 142 140 153 171 182 193 191 189 189 197 205 205 205 205 210 213 218 219 222 226 228 223 217 240 285 260 255 252 231 233 232 238 239 237 249 246 251 241
6 81 72 68 81 71 112 75 88 133 138 149 158 177 181 190 193 183 190 191 202 209 211 212 212 214 217 218 217 217 223 234 242 242 243 246 265 254 253 261 249 239 246 243 247 242 236 241 239
154 77 49 53 87 113 117 15 135 152 153 164 181 188 196 193 192 199 195 196 204 210 212 213 214 214 217 219 222 227 234 242 257 262 245 252 254 259 259 239 269 144 185 273 242 242 250 245 236
101 67 108 243 113 203 67 243 73 153 161 180 193 184 196 211 204 198 206 207 209 207 207 207 211 215 216 217 221 229 234 244 257 270 271 257 249 256 253 241 239 232 225 222 276 241 233 240 242
18 62 343 254 180 135 85 200 122 76 142 152 121 162 200 200 201 209 206 210 210 216 212 211 212 219 220 216 222 233 238 244 250 265 271 255 244 246 250 245 251 275 264 268 268 272 230 238 254
328 6 336 206 25 53 66 41 61 56 137 186 206 203 239 230 216 211 202 208 210 216 222 223 222 218 225 234 233 243 243 243 249 256 261 250 245 246 247 249 249 264 287 277 262 255 243 245 282
210 216 177 83 21 78 55 66 18 332 154 234 223 226 333 19 339 293 224 206 208 213 216 223 217 221 220 230 229 240 243 254 254 260 262 264 246 249 253 256 249 249 254 271 261 253 249 276 277
295 300 154 78 16 83 107 50 317 294 279 244 264 284 90 37 87 32 352 226 214 213 213 217 218 222 223 228 235 240 253 260 257 263 267 275 261 254 255 258 254 248 250 244 250 248 245 267 281
259 210 187 141 109 53 91 348 346 306 330 310 1 131 98 99 79 40 341 91 219 221 220 224 220 226 231 238 244 250 257 267 268 265 275 278 274 262 253 254 258 253 250 251 253 243 242 250 270
322 223 129 150 104 167 40 263 301 347 333 313 339 104 134 159 115 73 48 24 0 224 214 246 242 231 238 241 247 250 259 264 271 277 284 285 274 273 262 253 257 258 260 258 261 258 253 250 251
247 52 111 133 92 97 354 82 258 343 315 275 274 223 165 184 112 70 60 24 14 89 201 226 217 232 244 247 260 267 266 270 275 287 292 287 289 277 273 266 260 262 265 265 262 258 255 256 246
160 79 45 48 87 39 128 123 267 200 219 285 302 258 157 92 108 73 40 35 8 61 180 217 221 234 242 247 235 248 264 277 280 281 292 296 290 285 279 281 272 271 272 262 268 269 257 255 253
86 70 19 24 18 220 113 76 247 243 240 250 281 2 18 59 94 83 53 37 33 35 66 193 208 224 222 243 273 277 280 275 285 294 297 295 291 291 281 278 275 273 275 276 270 269 268 257 251
165 157 155 182 188 242 126 233 264 213 252 288 285 42 53 85 96 88 67 66 64 63 84 99 140 223 228 244 270 305 314 288 289 294 293 283 286 286 292 285 281 281 271 266 265 267 263 255 252
180 125 161 103 15 64 237 287 316 246 113 138 286 63 88 105 102 108 124 99 81 77 84 88 87 83 83 292 296 313 316 311 300 315 325 338 330 277 240 269 287 281 273 266 263 258 255 266 259
135 146 81 21 128 229 284 261 231 175 192 194 180 178 150 139 129 128 129 115 103 95 91 85 81 75 71 64 60 42 32 17 13 6 354 354 349 350 281 283 278 267 267 262 268 262 257 259 261
136 82 55 107 87 153 246 264 228 186 185 181 185 180 177 166 154 145 138 129 119 107 99 94 89 85 74 58 33 11 0 355 355 358 0 354 342 327 317 310 318 312 271 259 261 262 264 264 262
351 156 134 114 206 136 154 272 326 189 182 177 182 182 175 176 172 151 147 146 137 123 114 106 99 88 69 43 15 3 352 349 344 342 346 350 346 334 324 318 312 310 308 289 276 259 265 267 264
Height
756 757 758 758 786 792 803 795 780 785 782 774 773 782 788 789 796 816 797 800 803 809 814 819 822 824 826 827 828 829 830 831 831 832 833 833 833 834 834 835 834 834 834 835 837 838 839 840 841
757 759 760 767 800 817 809 780 789 781 776 773 775 779 785 796 790 796 800 803 805 809 815 819 822 825 826 827 829 831 831 832 833 834 834 834 834 835 837 836 837 836 835 836 837 839 841 842 843
759 760 766 785 805 812 805 780 783 778 772 773 779 777 784 797 794 797 799 803 807 811 816 820 823 825 826 829 831 832 833 833 834 836 836 836 836 836 837 838 838 839 838 838 838 840 842 844 844
759 761 769 796 796 784 782 781 776 779 771 770 776 791 786 790 795 796 800 805 808 813 817 821 824 825 827 829 831 833 834 835 836 837 838 838 838 837 838 839 841 841 841 840 840 841 844 845 846
758 768 795 799 791 778 772 771 775 779 775 777 777 797 799 797 796 799 803 806 809 814 818 821 824 826 828 830 832 833 835 836 837 838 839 840 839 839 840 840 841 842 843 843 842 843 845 847 848
769 774 807 814 795 778 773 771 774 776 777 781 787 794 803 800 799 803 806 809 812 815 818 822 825 827 829 831 832 834 836 837 838 840 841 841 841 841 841 842 842 843 844 845 845 845 846 848 849
772 788 801 799 794 784 776 769 778 780 781 785 781 802 806 805 805 806 809 812 815 818 820 822 825 827 829 831 832 834 836 837 839 841 841 842 842 842 843 843 844 845 846 847 847 847 847 849 850
767 782 792 792 797 791 773 771 771 777 784 777 780 800 810 804 807 808 811 814 817 820 821 823 825 826 828 830 833 835 836 838 840 842 842 843 843 844 844 844 845 846 847 848 848 849 849 850 851
758 795 804 793 792 782 769 779 774 773 779 782 781 786 793 802 806 809 813 816 818 819 821 823 825 826 829 831 833 835 837 839 841 843 843 844 845 845 844 845 845 847 847 848 848 849 850 850 851
773 796 786 768 768 776 773 776 778 784 787 793 793 793 798 802 805 808 811 814 816 817 818 822 824 825 828 831 833 835 838 840 841 843 843 843 844 845 845 845 845 846 847 847 847 848 849 849 849
768 784 766 760 760 763 775 780 776 786 796 790 796 797 801 803 804 804 808 809 811 815 817 819 823 825 827 830 832 835 838 840 841 842 841 842 843 844 844 844 844 845 846 846 846 846 847 847 847
774 760 756 758 758 767 777 776 784 783 786 783 787 791 797 801 803 805 807 809 812 814 815 819 822 825 827 829 832 834 837 839 839 842 840 841 842 842 842 843 844 844 845 845 845 846 846 845 845
767 762 758 758 763 769 771 782 784 789 783 787 793 797 799 802 803 806 808 811 814 814 815 817 820 824 826 829 832 834 836 838 839 840 841 840 841 841 842 842 842 843 844 844 844 844 845 844 843
762 762 766 766 770 774 783 785 781 789 787 791 793 796 798 801 802 806 808 809 812 813 815 817 820 824 826 828 831 833 835 837 838 838 841 839 839 840 840 841 841 841 842 842 842 842 842 842 841
761 777 773 773 776 785 777 795 795 785 787 792 794 795 796 798 802 802 802 805 808 811 815 817 821 824 826 828 830 832 833 835 835 837 839 838 838 839 840 841 840 839 840 840 840 840 841 840 839
776 781 803 777 777 780 784 814 792 788 791 797 796 797 798 799 797 800 804 808 810 812 816 816 820 824 826 827 829 830 832 834 834 835 836 836 837 838 839 840 841 839 838 838 838 839 838 838 837
796 812 800 791 776 781 791 809 795 789 794 802 802 802 799 798 798 800 803 805 809 813 814 816 819 822 824 826 828 830 831 832 833 833 834 834 835 836 837 838 839 838 837 838 838 838 837 837 836
813 810 800 800 791 791 805 811 801 797 797 802 804 803 800 801 799 798 801 804 807 810 814 816 818 821 824 827 829 831 831 831 832 832 832 833 834 835 836 837 837 838 838 837 837 837 836 836 835
792 800 804 794 788 803 814 814 810 802 800 802 803 803 806 807 805 804 802 802 804 807 810 814 815 819 823 825 828 829 830 831 831 831 831 831 832 834 834 835 835 836 836 836 836 836 835 834 833
792 801 804 798 792 803 813 816 809 802 802 799 799 805 805 803 803 807 803 802 801 803 808 810 813 818 822 824 826 828 828 829 830 830 829 829 830 831 832 833 833 834 834 835 834 834 833 833 832
794 798 802 804 802 802 810 821 817 806 802 795 796 802 806 806 804 804 804 802 800 802 804 810 814 817 821 823 825 827 828 827 827 827 827 828 829 829 829 831 832 833 834 834 834 833 832 832 832
800 778 786 799 809 837 814 851 825 820 811 800 793 801 801 803 800 800 801 800 799 804 813 816 816 817 817 819 821 824 826 826 826 826 826 826 825 826 827 828 829 831 831 831 832 832 831 830 830
791 776 788 798 818 825 825 840 830 819 814 801 793 791 801 800 791 796 798 800 801 805 809 806 811 817 815 816 819 822 824 826 826 826 825 824 824 825 824 824 827 827 827 827 828 829 828 828 828
770 790 807 818 828 847 835 841 839 825 810 800 793 787 793 790 788 795 800 799 800 804 807 808 812 812 811 813 812 815 817 820 821 822 822 822 822 822 822 821 822 823 823 823 824 825 825 824 824
782 807 848 847 853 855 842 849 831 813 804 799 792 790 788 784 792 798 805 805 803 802 803 804 807 808 810 811 805 808 814 817 818 817 817 817 818 818 818 818 818 819 819 820 819 820 820 819 818
786 800 836 843 864 851 836 846 824 804 796 795 791 794 792 791 795 803 811 811 807 806 805 807 810 811 811 811 808 809 814 816 814 812 812 814 813 814 814 814 815 815 813 812 813 814 814 813 812
786 803 800 846 856 853 847 829 814 806 804 800 798 800 799 801 801 806 811 814 811 811 810 812 813 812 813 814 814 812 813 813 812 813 812 811 808 806 801 806 810 810 806 804 804 806 806 807 807
768 788 813 831 852 849 845 841 828 814 808 805 803 804 806 807 805 809 814 814 814 814 816 816 816 814 814 816 818 819 818 817 815 814 813 813 810 808 808 807 805 802 799 797 799 801 801 800 800
785 800 821 831 844 855 854 838 800 797 793 798 801 804 807 808 808 810 812 816 817 817 818 819 819 820 820 820 820 819 818 817 814 813 811 809 807 806 804 803 800 796 794 794 795 795 795 795 795
777 788 801 823 838 850 846 829 793 792 789 791 796 800 806 808 811 811 812 816 819 819 820 821 822 823 821 821 820 818 817 815 813 811 808 807 805 803 801 800 798 796 793 791 789 789 790 789 789